Location: Seattle
(47.6064°N, 122.3308°W)
Time: 19:36:10
(UTC-07:00)

Tiros 1 - Pass Details

Date: 29 July 2021
Orbit: 630 x 663 km, 48.4° (Epoch: 18 September)

Event Time Altitude Azimuth Distance (km) Brightness Sun altitude
Rises 22:58:29 0° 273° (W) 2,969 11.1 -17.1°
Reaches altitude 10° 23:00:51 10° 274° (W) 2,053 10.2 -17.4°
Maximum altitude 23:05:35 81° 2° (N) 658 7.2 -17.8°
Enters shadow 23:09:17 16° 89° (E) 1,653 8.9 -18.1°
